Regional Weather Roundup
Issued by NWS

Home | Current Version | Previous Version | Text Only | Print | Product List | Glossary On
Versions: 1 2 3 4 5 6 7 8 9 10 11 12 13 14 15 16 17 18 19 20 21 22 23 24 25 26 27 28 29 30 31 32 33 34 35 36 37 38 39 40 41 42 43 44 45 46 47 48 49 50
098
ASUS44 KJAN 250210
RWRMS

MISSISSIPPI HOURLY WEATHER ROUNDUP
NATIONAL WEATHER SERVICE JACKSON MS
900 PM CDT FRI OCT 24 2014

NOTE: "FAIR: INDICATES FEW OR NO CLOUDS BELOW 12,000 FEET WITH NO
SIGNIFICANT WEATHER AND/OR OBSTRUCTIONS TO VISIBILITY.

MSZ001>002-007>008-010>013-018>021-025>028-034>036-250300-
NORTHWEST MISSISSIPPI

CITY           SKY/WX    TMP DP  RH WIND       PRES   REMARKS
CLARKSDALE     MOCLDY    59  55  88 CALM      30.11S
CLEVELAND      FAIR      59  55  85 CALM      30.11R
GREENWOOD      CLEAR     54  52  93 CALM      30.11R
GREENVILLE     CLEAR     58  51  78 CALM      30.11R
GRENADA          N/A    N/A N/A N/A MISG        N/A
OLIVE BRANCH   CLEAR     57  57 100 CALM      30.09S
OXFORD         FAIR      54  52  94 CALM      30.12R
TUNICA         CLEAR     61  54  77 SW3       30.10F
$$

MSZ003>006-009-014>017-022>024-029>033-037>039-250300-
NORTHEAST MISSISSIPPI

CITY           SKY/WX    TMP DP  RH WIND       PRES   REMARKS
COLUMBUS AFB   CLEAR     51  48  89 CALM      30.09S
CORINTH        FAIR      54  52  94 CALM      30.09R
GOLDN TRIANGLE CLEAR     54  43  66 CALM      30.09S
STARKVILLE     FAIR      50  46  87 CALM      30.10S
TUPELO         CLEAR     57  52  83 CALM      30.09S
$$

MSZ040-058-250300-
CENTRAL MISSISSIPPI

CITY           SKY/WX    TMP DP  RH WIND       PRES   REMARKS
JACKSON INTL   PTCLDY    55  48  77 CALM      30.12R
JACKSON HAWKNS CLEAR     56  48  74 CALM      30.12R
MERIDIAN KEY   CLEAR     51  47  86 CALM      30.10R
MERIDIAN NAS   CLEAR     54  48  80 W3        30.10R
RAYMOND        FAIR      50  46  87 MISG      30.12R
VICKSBURG      CLEAR     48  46  93 CALM      30.12R
$$

MSZ059>079-250300-
SOUTH MISSISSIPPI

CITY           SKY/WX    TMP DP  RH WIND       PRES   REMARKS
BROOKHAVEN     FAIR      54  48  82 CALM      30.13R
COLUMBIA         N/A    N/A N/A N/A MISG        N/A
HATTIESBURG    CLEAR     55  51  86 CALM      30.10R
MCCOMB         CLEAR     58  47  66 N5        30.10S
NATCHEZ        CLEAR     54  48  82 CALM      30.13R
PINE BELT      CLEAR     55  45  67 NW5       30.11R
$$

MSZ080>082-250300-
COASTAL MISSISSIPPI

CITY           SKY/WX    TMP DP  RH WIND       PRES   REMARKS
BAY ST LOUIS   CLEAR     54  48  82 CALM      30.09R
BILOXI         CLEAR     65  50  58 NW5       30.07R
PASCAGOULA     CLEAR     52  48  86 CALM      30.07R
GULFPORT       CLEAR     60  50  69 NW3       30.07R
$$



USA.gov is the U.S. government's official web portal to all federal, state and local government web resources and services.